Weather History for Wise, VA

Change the Weather History Date:

Thursday, June 20, 2013

  Actual Average Record
Temperature  
Mean Temperature 70 °F -  
Max Temperature 80 °F 76 °F 89 °F (2012)
Min Temperature 60 °F 57 °F 53 °F (1999)
Cooling Degree Days 5    
Growing Degree Days 20 (Base 50)    
Moisture  
Dew Point 63 °F    
Average Humidity 80    
Maximum Humidity 100    
Minimum Humidity 51    
Precipitation  
Precipitation 0.00 in - - ()
Sea Level Pressure  
Sea Level Pressure 30.26 in    
Wind  
Wind Speed 2 mph (ESE)    
Max Wind Speed 9 mph    
Max Gust Speed -    
Visibility 9 miles    
Events Rain , Thunderstorm    
Averages and records for this station are not official NWS values.
T = Trace of Precipitation, MM = Missing Value Source: NWS Daily Summary

Daily Weather History Graph

Daily Weather History Graph

Search for Another Location

Airport:

Trip Planner

Search our weather history database for the weather conditions in past years. The results will help you decide how hot, cold, wet, or windy it might be!

Date:

Astronomy

Jun. 20, 2013 Rise Set
Actual Time 6:10 AM EDT 8:52 PM EDT
Civil Twilight 5:39 AM EDT 9:23 PM EDT
Nautical Twilight 5:01 AM EDT 10:02 PM EDT
Astronomical Twilight 4:17 AM EDT 10:45 PM EDT
Moon 5:56 PM EDT (6/20) 3:33 AM EDT (6/20)
Length of Visible Light 15h 43m
Length of Day
14h 42m
Waxing Gibbous, 89% of the Moon is Illuminated
Jun 20
Waxing Gibbous
Jun 23
Full
Jun 30
Last Quarter
Jul 8
New
Jul 15
First Quarter

Hourly Weather History & Observations

Time (EDT) Temp. Heat Index Dew Point Humidity Pressure Visibility Wind Dir Wind Speed Gust Speed Precip Events Conditions
12:15 AM 64.4 °F - 59.0 °F 83% 30.22 in 10.0 mi NNE 4.6 mph - N/A   Clear
12:35 AM 64.4 °F - 60.8 °F 88% 30.22 in 10.0 mi NE 3.5 mph - N/A   Clear
12:55 AM 64.4 °F - 60.8 °F 88% 30.22 in 10.0 mi NE 3.5 mph - N/A   Clear
1:15 AM 62.6 °F - 60.8 °F 94% 30.22 in 10.0 mi NE 3.5 mph - N/A   Clear
1:35 AM 64.4 °F - 60.8 °F 88% 30.21 in 10.0 mi Calm Calm - N/A   Clear
1:55 AM 62.6 °F - 62.6 °F 100% 30.21 in 10.0 mi Calm Calm - N/A   Clear
2:15 AM 60.8 °F - 60.8 °F 100% 30.21 in 10.0 mi Calm Calm - N/A   Clear
2:35 AM 60.8 °F - 60.8 °F 100% 30.21 in 7.0 mi Calm Calm - N/A   Clear
2:55 AM 60.8 °F - 60.8 °F 100% 30.21 in 5.0 mi Calm Calm - N/A   Clear
3:15 AM 60.8 °F - 60.8 °F 100% 30.21 in 10.0 mi Calm Calm - N/A   Clear
3:35 AM 62.6 °F - 62.6 °F 100% 30.21 in 10.0 mi Calm Calm - N/A   Clear
3:55 AM 60.8 °F - 60.8 °F 100% 30.21 in 5.0 mi Calm Calm - N/A   Clear
4:15 AM 60.8 °F - 60.8 °F 100% 30.21 in 2.5 mi Calm Calm - N/A   Clear
4:35 AM 60.8 °F - 60.8 °F 100% 30.22 in 7.0 mi Calm Calm - N/A   Clear
4:55 AM 60.8 °F - 60.8 °F 100% 30.22 in 7.0 mi Calm Calm - N/A   Clear
5:15 AM 60.8 °F - 60.8 °F 100% 30.23 in 7.0 mi Calm Calm - N/A   Clear
5:35 AM 60.8 °F - 60.8 °F 100% 30.23 in 7.0 mi Calm Calm - N/A   Clear
5:55 AM 60.8 °F - 60.8 °F 100% 30.23 in 5.0 mi Calm Calm - N/A   Clear
6:15 AM 60.8 °F - 60.8 °F 100% 30.24 in 4.0 mi Calm Calm - N/A   Clear
6:35 AM 60.8 °F - 60.8 °F 100% 30.25 in 3.0 mi Calm Calm - N/A   Clear
6:55 AM 60.8 °F - 60.8 °F 100% 30.25 in 3.0 mi Calm Calm - N/A   Mostly Cloudy
7:15 AM 62.6 °F - 62.6 °F 100% 30.26 in 10.0 mi SSE 4.6 mph - N/A   Scattered Clouds
7:35 AM 64.4 °F - 62.6 °F 94% 30.27 in 10.0 mi SSE 4.6 mph - N/A   Clear
7:55 AM 66.2 °F - 64.4 °F 94% 30.27 in 10.0 mi SSE 4.6 mph - N/A   Clear
8:15 AM 68.0 °F - 64.4 °F 88% 30.28 in 10.0 mi SSE 3.5 mph - N/A   Clear
8:35 AM 69.8 °F - 64.4 °F 83% 30.28 in 10.0 mi South 3.5 mph - N/A   Clear
8:55 AM 69.8 °F - 64.4 °F 83% 30.28 in 10.0 mi South 3.5 mph - N/A   Clear
9:15 AM 69.8 °F - 64.4 °F 83% 30.29 in 10.0 mi South 4.6 mph - N/A   Clear
9:35 AM 69.8 °F - 62.6 °F 78% 30.29 in 10.0 mi South 3.5 mph - N/A   Clear
9:55 AM 71.6 °F - 62.6 °F 73% 30.30 in 10.0 mi SSW 3.5 mph - N/A   Clear
10:15 AM 73.4 °F - 64.4 °F 73% 30.29 in 10.0 mi SSW 4.6 mph - N/A   Clear
10:35 AM 73.4 °F - 64.4 °F 73% 30.29 in 10.0 mi South 3.5 mph - N/A   Scattered Clouds
10:55 AM 73.4 °F - 62.6 °F 69% 30.29 in 10.0 mi SSE 3.5 mph - N/A   Scattered Clouds
11:15 AM 75.2 °F - 64.4 °F 69% 30.30 in 10.0 mi Calm Calm - N/A   Scattered Clouds
11:35 AM 73.4 °F - 62.6 °F 69% 30.30 in 10.0 mi Calm Calm - N/A   Overcast
11:55 AM 73.4 °F - 62.6 °F 69% 30.30 in 10.0 mi Calm Calm - N/A   Overcast
12:15 PM 73.4 °F - 64.4 °F 73% 30.30 in 10.0 mi Calm Calm - N/A   Overcast
12:35 PM 73.4 °F - 64.4 °F 73% 30.30 in 10.0 mi East 3.5 mph - N/A   Mostly Cloudy
12:55 PM 75.2 °F - 64.4 °F 69% 30.30 in 10.0 mi Calm Calm - N/A   Mostly Cloudy
1:15 PM 77.0 °F - 64.4 °F 65% 30.30 in 10.0 mi East 3.5 mph - N/A   Overcast
1:35 PM 77.0 °F - 60.8 °F 57% 30.29 in 10.0 mi Calm Calm - N/A   Overcast
1:55 PM 77.0 °F - 64.4 °F 65% 30.29 in 10.0 mi Calm Calm - N/A   Scattered Clouds
2:15 PM 78.8 °F - 62.6 °F 57% 30.29 in 10.0 mi Calm Calm - N/A   Clear
2:35 PM 77.0 °F - 60.8 °F 57% 30.28 in 10.0 mi South 4.6 mph - N/A   Mostly Cloudy
2:55 PM 78.8 °F - 62.6 °F 57% 30.28 in 10.0 mi South 3.5 mph - N/A   Mostly Cloudy
3:15 PM 77.0 °F - 62.6 °F 61% 30.28 in 10.0 mi South 5.8 mph - N/A   Mostly Cloudy
3:35 PM 78.8 °F - 64.4 °F 61% 30.28 in 10.0 mi SE 3.5 mph - N/A   Overcast
3:55 PM 78.8 °F - 62.6 °F 57% 30.27 in 10.0 mi Calm Calm - N/A   Scattered Clouds
4:15 PM 78.8 °F - 62.6 °F 57% 30.27 in 10.0 mi SW 5.8 mph - N/A   Scattered Clouds
4:35 PM 80.6 °F 81.5 °F 60.8 °F 51% 30.26 in 10.0 mi WNW 3.5 mph - N/A   Clear
4:55 PM 78.8 °F - 60.8 °F 54% 30.26 in 10.0 mi Calm Calm - N/A   Scattered Clouds
5:15 PM 80.6 °F 81.8 °F 62.6 °F 54% 30.26 in 10.0 mi NNW 3.5 mph - N/A   Clear
5:35 PM 77.0 °F - 64.4 °F 65% 30.26 in 10.0 mi North 9.2 mph - N/A   Scattered Clouds
5:55 PM 78.8 °F - 64.4 °F 61% 30.26 in 10.0 mi North 5.8 mph - N/A   Clear
6:15 PM 78.8 °F - 66.2 °F 65% 30.26 in 10.0 mi NE 6.9 mph - N/A   Clear
6:35 PM 77.0 °F - 64.4 °F 65% 30.26 in 10.0 mi North 5.8 mph - N/A   Clear
6:55 PM 75.2 °F - 64.4 °F 69% 30.26 in 10.0 mi North 4.6 mph - N/A   Scattered Clouds
7:15 PM 75.2 °F - 64.4 °F 69% 30.26 in 10.0 mi North 5.8 mph - N/A   Clear
7:35 PM 73.4 °F - 64.4 °F 73% 30.26 in 10.0 mi NNE 5.8 mph - N/A   Clear
7:55 PM 73.4 °F - 64.4 °F 73% 30.26 in 10.0 mi NNE 4.6 mph - N/A   Scattered Clouds
8:15 PM 73.4 °F - 64.4 °F 73% 30.26 in 10.0 mi NNE 3.5 mph - N/A   Clear
8:35 PM 71.6 °F - 64.4 °F 78% 30.27 in 10.0 mi NNE 5.8 mph - N/A   Clear
8:55 PM 69.8 °F - 62.6 °F 78% 30.28 in 10.0 mi NNE 4.6 mph - N/A Thunderstorm Clear
9:15 PM 71.6 °F - 62.6 °F 73% 30.28 in 10.0 mi ENE 3.5 mph - N/A Thunderstorm Mostly Cloudy
9:35 PM 69.8 °F - 62.6 °F 78% 30.30 in 10.0 mi SSE 4.6 mph - N/A Thunderstorm Thunderstorm
9:55 PM 66.2 °F - 62.6 °F 88% 30.30 in 10.0 mi South 3.5 mph - N/A Rain , Thunderstorm Rain
10:15 PM 64.4 °F - 64.4 °F 100% 30.30 in 10.0 mi Calm Calm - N/A Rain Light Rain
10:35 PM 64.4 °F - 64.4 °F 100% 30.30 in 10.0 mi Calm Calm - N/A   Overcast
10:55 PM 64.4 °F - 64.4 °F 100% 30.29 in 10.0 mi Calm Calm - N/A Rain Light Rain
11:15 PM 66.2 °F - 60.8 °F 83% 30.30 in 10.0 mi ESE 4.6 mph - N/A   Mostly Cloudy
11:35 PM 64.4 °F - 60.8 °F 88% 30.30 in 10.0 mi East 4.6 mph - N/A   Overcast
11:55 PM 64.4 °F - 60.8 °F 88% 30.29 in 10.0 mi Calm Calm - N/A   Overcast